This demonstration page uses our WeatherBlox Daily Observations layout. Learn more.

Left ArrowRight Arrow

36.17497, -115.13722

Hourly Observations for June 11, 2021

Temp ( °F °C ) Dew Point ( °F °C ) Humidity (%) Winds ( mph kmh ) Pressure ( in mb ) Visibility ( mi km ) Precip ( " mm )
12:53 am 00:53 Clear 76 24.4 -8 -22.2 3 3 NW 13 20 29.87 1012 10 16 N/A
1:53 am 01:53 Clear 75 23.9 -9 -22.8 3 3 NNW 13 20 29.86 1011 10 16 N/A
2:53 am 02:53 Clear 72 22.2 3 -16.1 6 6 W 9 15 29.86 1011 10 16 N/A
3:53 am 03:53 Clear 72 22.2 -5 -20.6 4 4 NE 15 24 29.87 1012 10 16 N/A
4:53 am 04:53 Clear 71 21.7 -7 -21.7 4 4 N 9 15 29.87 1012 10 16 N/A
5:53 am 05:53 Sunny 68 20 2 -16.7 7 7 W 7 11 29.88 1012 10 16 N/A
6:53 am 06:53 Sunny 72 22.2 3 -16.1 6 6 WNW 7 11 29.89 1012 10 16 N/A
7:53 am 07:53 Sunny 76 24.4 -4 -20 4 4 NW 8 13 29.91 1013 10 16 N/A
8:53 am 08:53 Sunny 80 26.7 -2 -18.9 4 4 N 5 7 29.92 1013 10 16 N/A
9:53 am 09:53 Sunny 82 27.8 -1 -18.3 4 4 E 5 7 29.92 1013 10 16 N/A
10:53 am 10:53 Sunny 85 29.4 2 -16.7 4 4 VRB 6 9 29.91 1013 10 16 N/A
11:53 am 11:53 Sunny 88 31.1 N/A 3 3 undefined N/A 29.90 1012 10 16 N/A
12:53 pm 12:53 Sunny 89 31.7 2 -16.7 3 3 VRB 7 11 29.88 1012 10 16 N/A
1:53 pm 13:53 Sunny 90 32.2 3 -16.1 3 3 E 5 7 29.85 1011 10 16 N/A
2:53 pm 14:53 Sunny 94 34.4 3 -16.1 3 3 VRB 3 6 29.83 1010 10 16 N/A
3:53 pm 15:53 Sunny 93 33.9 4 -15.6 3 3 SE 7 11 29.80 1009 10 16 N/A
4:53 pm 16:53 Sunny 95 35 4 -15.6 3 3 E 8 13 29.78 1008 10 16 N/A
5:53 pm 17:53 Sunny 95 35 5 -15 3 3 E 7 11 29.76 1008 10 16 N/A
6:53 pm 18:53 Sunny 95 35 6 -14.4 3 3 ESE 6 9 29.75 1007 10 16 N/A
7:53 pm 19:53 Sunny 92 33.3 6 -14.4 4 4 ENE 7 11 29.75 1008 10 16 N/A
8:53 pm 20:53 Clear 89 31.7 8 -13.3 5 5 SE 5 7 29.77 1008 10 16 N/A
9:53 pm 21:53 Clear 85 29.4 12 -11.1 6 6 NW 6 9 29.79 1009 10 16 N/A
10:53 pm 22:53 Clear 82 27.8 19 -7.2 9 9 NW 6 9 29.79 1009 10 16 N/A
11:53 pm 23:53 Clear 80 26.7 19 -7.2 10 10 WNW 6 9 29.79 1009 10 16 N/A

Powered by AerisWeather